Location: Middelsbur
(53.6609°N, 7.5020°E)
Time: 06:50:28
(UTC+00:00)

NOSS 3-3 (A) - Visible Passes

Search period start: 20 October 2020 00:00
Search period end: 30 October 2020 00:00
Orbit: 822 x 1390 km, 63.4° (Epoch: 13 October)

Date Brightness Start Highest point End Pass type
(mag) Time Alt. Az. Time Alt. Az. Time Alt. Az.
20 Oct 5.1 01:42:54 43° N 01:43:53 45° NNE 01:51:23 10° E visible
20 Oct 4.4 03:30:21 21° NW 03:35:39 88° NE 03:43:54 10° SE visible
20 Oct 5.2 05:19:39 10° WNW 05:26:11 33° WSW 05:33:19 10° S visible
20 Oct 6.7 23:12:27 12° NE 23:12:27 12° NE 23:13:03 10° NE visible
21 Oct 5.5 00:59:56 38° NE 00:59:56 38° NE 01:05:55 10° E visible
21 Oct 4.6 02:47:24 36° NW 02:50:43 71° NE 02:58:52 10° ESE visible
21 Oct 4.8 04:34:52 11° NW 04:41:37 46° WSW 04:49:23 10° SSE visible
22 Oct 6.1 00:17:05 24° NE 00:17:05 24° NE 00:20:28 10° ENE visible
22 Oct 4.8 02:04:34 53° N 02:05:42 58° NNE 02:13:38 10° ESE visible
22 Oct 4.5 03:52:03 23° NW 03:56:57 61° SW 04:05:04 10° SSE visible
22 Oct 6.7 23:34:23 13° ENE 23:34:23 13° ENE 23:35:05 10° ENE visible
23 Oct 5.2 01:21:53 45° NE 01:21:53 45° NE 01:28:16 10° E visible
23 Oct 4.3 03:09:22 43° NW 03:12:11 80° SW 03:20:25 10° SE visible
23 Oct 5.4 04:56:52 12° WNW 05:02:29 27° WSW 05:09:04 10° SSW visible
23 Oct 5.7 18:55:20 10° S 18:56:13 14° S 18:56:13 14° S visible
24 Oct 6.1 00:39:21 25° ENE 00:39:21 25° ENE 00:42:49 10° E visible
24 Oct 4.4 02:26:51 78° N 02:27:19 81° NE 02:35:31 10° SE visible
24 Oct 5.0 04:14:21 25° WNW 04:18:00 38° WSW 04:25:25 10° S visible
24 Oct 5.3 18:11:44 10° SSE 18:14:04 19° SE 18:14:04 19° SE visible
24 Oct 5.8 20:00:08 10° SW 20:01:35 19° SW 20:01:35 19° SW visible
24 Oct 6.8 23:57:00 11° ENE 23:57:00 11° ENE 23:57:21 10° ENE visible
25 Oct 5.1 01:44:31 48° E 01:44:31 48° E 01:50:24 10° ESE visible
25 Oct 4.6 03:32:02 47° W 03:33:23 51° SW 03:41:19 10° SSE visible
25 Oct 6.0 05:19:33 11° WNW 05:23:03 14° WSW 05:27:00 10° SW visible
25 Oct 5.4 17:28:55 10° SE 17:31:48 15° ESE 17:31:48 15° ESE visible
25 Oct 4.6 19:15:35 10° SSW 19:19:19 40° S 19:19:19 40° S visible
25 Oct 6.4 21:06:33 10° WSW 21:06:49 11° W 21:06:49 11° W visible
26 Oct 6.2 01:02:21 23° E 01:02:21 23° E 01:05:07 10° ESE visible
26 Oct 4.6 02:49:53 60° S 02:49:53 60° S 02:56:52 10° SSE visible
26 Oct 5.5 04:37:24 21° W 04:38:45 22° WSW 04:44:35 10° SSW visible
26 Oct 4.2 18:31:20 10° SSW 18:36:51 43° ESE 18:36:53 43° ESE visible
26 Oct 5.4 20:21:30 10° WSW 20:24:23 30° WSW 20:24:23 30° WSW visible
27 Oct 5.6 02:07:52 34° SE 02:07:52 34° SE 02:12:07 10° SE visible
27 Oct 5.3 03:55:25 30° SW 03:55:25 30° SW 04:01:17 10° S visible
27 Oct 4.7 17:47:26 10° S 17:52:26 29° ESE 17:54:18 25° E visible
27 Oct 4.1 19:36:36 10° SW 19:41:47 68° WSW 19:41:47 68° WSW visible
27 Oct 6.4 21:28:27 10° W 21:29:16 14° W 21:29:16 14° W visible
28 Oct 6.5 01:25:57 15° ESE 01:25:57 15° ESE 01:27:08 10° ESE visible
28 Oct 5.6 03:13:30 28° S 03:13:30 28° S 03:17:26 10° S visible
28 Oct 5.2 17:04:05 10° SSE 17:08:08 19° ESE 17:11:34 13° ENE visible
28 Oct 3.8 18:51:54 10° SW 18:57:50 76° SE 18:59:02 60° ENE visible
28 Oct 5.6 20:43:15 10° W 20:46:31 30° WNW 20:46:31 30° WNW visible
29 Oct 6.3 02:31:40 16° SSE 02:31:40 16° SSE 02:33:11 10° SSE visible
29 Oct 6.3 04:19:12 11° SW 04:19:12 11° SW 04:19:49 10° SW visible
29 Oct 4.1 18:07:28 10° SSW 18:13:12 54° SE 18:16:09 31° ENE visible
29 Oct 4.6 19:58:09 10° WSW 20:03:37 54° NW 20:03:37 54° NW visible
29 Oct 6.5 21:50:22 10° WNW 21:51:06 13° WNW 21:51:06 13° WNW visible
